Location: Dixon
(37.9953°N, 92.0959°W)
Time: 08:05:46
(UTC+00:00)

Hubble Space Telescope - Pass Details

Date: 14 December 2025
Orbit: 479 x 481 km, 28.5° (Epoch: 14 January)

Event Time Altitude Azimuth Distance (km) Brightness Sun altitude
Rises 01:11:58 0° 251° (WSW) 2,526 5.4 -27.2°
Reaches altitude 10° 01:14:45 10° 230° (SW) 1,646 4.0 -27.8°
Enters shadow 01:16:19 16° 206° (SSW) 1,335 3.1 -28.1°
